Time,TemperatureF,DewpointF,PressureIn,WindDirection,WindDirectionDegrees,WindSpeedMPH,WindSpeedGustMPH,Humidity,HourlyPrecipIn,Conditions,Clouds,dailyrainin,SolarRadiationWatts/m^2,SoftwareType,DateUTC
2014-09-30 00:11:00,55.7,44.0,29.90,WNW,292,6.0,12.0,66,0.00,,,0.00,0,weatherlink.com 1.10,2014-09-30 07:11:00,
2014-09-30 00:26:00,54.9,44.0,29.89,WNW,292,5.0,10.0,68,0.00,,,0.00,0,weatherlink.com 1.10,2014-09-30 07:26:00,
2014-09-30 00:41:00,55.0,44.0,29.89,WNW,290,9.0,11.0,66,0.00,,,0.00,0,weatherlink.com 1.10,2014-09-30 07:41:00,
2014-09-30 00:56:00,56.1,43.0,29.89,WNW,291,8.0,11.0,61,0.00,,,0.00,0,weatherlink.com 1.10,2014-09-30 07:56:00,
2014-09-30 01:11:00,56.3,42.0,29.88,WNW,291,12.0,13.0,60,0.00,,,0.00,0,weatherlink.com 1.10,2014-09-30 08:11:00,
2014-09-30 01:26:00,55.8,42.0,29.88,WNW,290,7.0,11.0,60,0.00,,,0.00,0,weatherlink.com 1.10,2014-09-30 08:26:00,
2014-09-30 01:41:00,54.6,42.0,29.88,WNW,291,7.0,9.0,62,0.00,,,0.00,0,weatherlink.com 1.10,2014-09-30 08:41:00,
2014-09-30 01:56:00,54.5,42.0,29.88,WNW,292,8.0,9.0,62,0.00,,,0.00,0,weatherlink.com 1.10,2014-09-30 08:56:00,
2014-09-30 02:11:00,54.5,42.0,29.88,WNW,292,8.0,9.0,62,0.00,,,0.00,0,weatherlink.com 1.10,2014-09-30 09:11:00,
2014-09-30 02:26:00,55.2,41.0,29.87,WNW,294,5.0,11.0,59,0.00,,,0.00,0,weatherlink.com 1.10,2014-09-30 09:26:00,
2014-09-30 02:41:00,54.9,40.0,29.87,WNW,299,5.0,10.0,58,0.00,,,0.00,0,weatherlink.com 1.10,2014-09-30 09:41:00,
2014-09-30 02:57:00,55.6,40.0,29.86,WNW,294,12.0,17.0,56,0.00,,,0.00,0,weatherlink.com 1.10,2014-09-30 09:57:00,
2014-09-30 03:12:00,54.5,40.0,29.86,WNW,287,8.0,9.0,58,0.00,,,0.00,0,weatherlink.com 1.10,2014-09-30 10:12:00,
2014-09-30 03:27:00,54.4,40.0,29.86,WNW,288,11.0,17.0,58,0.00,,,0.00,0,weatherlink.com 1.10,2014-09-30 10:27:00,
2014-09-30 03:42:00,55.0,40.0,29.85,WNW,298,13.0,20.0,57,0.00,,,0.00,0,weatherlink.com 1.10,2014-09-30 10:42:00,
2014-09-30 03:57:00,54.4,40.0,29.84,WNW,295,16.0,17.0,58,0.00,,,0.00,0,weatherlink.com 1.10,2014-09-30 10:57:00,
2014-09-30 04:12:00,55.0,40.0,29.84,WNW,300,10.0,18.0,57,0.00,,,0.00,0,weatherlink.com 1.10,2014-09-30 11:12:00,
2014-09-30 04:27:00,55.7,40.0,29.84,WNW,300,10.0,20.0,56,0.00,,,0.00,0,weatherlink.com 1.10,2014-09-30 11:27:00,
2014-09-30 04:42:00,54.5,40.0,29.85,WNW,289,14.0,14.0,59,0.00,,,0.00,0,weatherlink.com 1.10,2014-09-30 11:42:00,
2014-09-30 04:57:00,55.1,39.0,29.84,WNW,286,10.0,15.0,56,0.00,,,0.00,0,weatherlink.com 1.10,2014-09-30 11:57:00,
2014-09-30 05:12:00,55.6,39.0,29.85,West,277,6.0,18.0,55,0.00,,,0.00,0,weatherlink.com 1.10,2014-09-30 12:12:00,
2014-09-30 05:27:00,53.9,40.0,29.85,WNW,290,8.0,12.0,59,0.00,,,0.00,0,weatherlink.com 1.10,2014-09-30 12:27:00,
2014-09-30 05:42:00,54.0,40.0,29.84,WNW,286,10.0,11.0,60,0.00,,,0.00,0,weatherlink.com 1.10,2014-09-30 12:42:00,
2014-09-30 05:57:00,53.2,40.0,29.84,WNW,288,12.0,13.0,62,0.00,,,0.00,0,weatherlink.com 1.10,2014-09-30 12:57:00,
2014-09-30 06:12:00,52.3,41.0,29.84,WNW,289,11.0,13.0,65,0.00,,,0.00,0,weatherlink.com 1.10,2014-09-30 13:12:00,
2014-09-30 06:27:00,52.5,41.0,29.84,WNW,290,10.0,15.0,65,0.00,,,0.00,0,weatherlink.com 1.10,2014-09-30 13:27:00,
2014-09-30 06:42:00,52.7,41.0,29.84,WNW,284,11.0,17.0,65,0.00,,,0.00,0,weatherlink.com 1.10,2014-09-30 13:42:00,
2014-09-30 06:57:00,52.3,41.0,29.85,WNW,290,12.0,15.0,65,0.00,,,0.00,5,weatherlink.com 1.10,2014-09-30 13:57:00,
2014-09-30 07:12:00,52.1,41.0,29.85,WNW,295,4.0,11.0,66,0.00,,,0.00,14,weatherlink.com 1.10,2014-09-30 14:12:00,
2014-09-30 07:27:00,50.9,41.0,29.86,WNW,294,0.0,4.0,68,0.00,,,0.00,25,weatherlink.com 1.10,2014-09-30 14:27:00,
2014-09-30 07:42:00,49.2,41.0,29.86,North,360,5.0,5.0,72,0.00,,,0.00,51,weatherlink.com 1.10,2014-09-30 14:42:00,
2014-09-30 07:57:00,49.3,41.0,29.87,North,360,0.0,1.0,73,0.00,,,0.00,81,weatherlink.com 1.10,2014-09-30 14:57:00,
2014-09-30 08:12:00,49.8,41.0,29.87,North,360,0.0,0.0,73,0.00,,,0.00,185,weatherlink.com 1.10,2014-09-30 15:12:00,
2014-09-30 08:27:00,51.5,43.0,29.87,North,360,1.0,2.0,72,0.00,,,0.00,243,weatherlink.com 1.10,2014-09-30 15:27:00,
2014-09-30 08:42:00,54.1,43.0,29.87,North,360,0.0,1.0,66,0.00,,,0.00,287,weatherlink.com 1.10,2014-09-30 15:42:00,
2014-09-30 08:57:00,54.6,43.0,29.87,North,360,1.0,5.0,65,0.00,,,0.00,341,weatherlink.com 1.10,2014-09-30 15:57:00,
2014-09-30 09:12:00,55.2,44.0,29.86,NW,306,0.0,1.0,66,0.00,,,0.00,397,weatherlink.com 1.10,2014-09-30 16:12:00,
2014-09-30 09:28:00,57.7,45.0,29.86,WNW,295,4.0,5.0,63,0.00,,,0.00,432,weatherlink.com 1.10,2014-09-30 16:28:00,
2014-09-30 09:43:00,58.3,45.0,29.86,WNW,301,0.0,5.0,61,0.00,,,0.00,490,weatherlink.com 1.10,2014-09-30 16:43:00,
2014-09-30 09:58:00,59.5,45.0,29.86,NNW,339,3.0,7.0,59,0.00,,,0.00,508,weatherlink.com 1.10,2014-09-30 16:58:00,
2014-09-30 10:13:00,60.1,45.0,29.86,NNW,347,3.0,5.0,58,0.00,,,0.00,334,weatherlink.com 1.10,2014-09-30 17:13:00,
2014-09-30 10:28:00,60.7,45.0,29.85,North,349,0.0,4.0,57,0.00,,,0.00,554,weatherlink.com 1.10,2014-09-30 17:28:00,
2014-09-30 10:43:00,60.8,44.0,29.84,North,350,2.0,4.0,54,0.00,,,0.00,524,weatherlink.com 1.10,2014-09-30 17:43:00,
2014-09-30 10:58:00,60.5,43.0,29.84,WSW,242,7.0,8.0,52,0.00,,,0.00,670,weatherlink.com 1.10,2014-09-30 17:58:00,
2014-09-30 11:13:00,60.8,42.0,29.83,WSW,246,4.0,9.0,51,0.00,,,0.00,705,weatherlink.com 1.10,2014-09-30 18:13:00,
2014-09-30 11:28:00,61.4,42.0,29.82,WSW,252,0.0,5.0,50,0.00,,,0.00,707,weatherlink.com 1.10,2014-09-30 18:28:00,
2014-09-30 11:43:00,62.5,42.0,29.82,SW,225,3.0,9.0,48,0.00,,,0.00,758,weatherlink.com 1.10,2014-09-30 18:43:00,
2014-09-30 11:58:00,63.2,42.0,29.81,SW,225,6.0,9.0,47,0.00,,,0.00,796,weatherlink.com 1.10,2014-09-30 18:58:00,
2014-09-30 12:13:00,65.4,43.0,29.81,North,5,0.0,7.0,45,0.00,,,0.00,758,weatherlink.com 1.10,2014-09-30 19:13:00,
2014-09-30 12:28:00,67.4,43.0,29.80,North,5,6.0,10.0,41,0.00,,,0.00,803,weatherlink.com 1.10,2014-09-30 19:28:00,
2014-09-30 12:43:00,68.9,43.0,29.80,North,5,5.0,14.0,39,0.00,,,0.00,912,weatherlink.com 1.10,2014-09-30 19:43:00,
2014-09-30 12:58:00,69.5,46.0,29.79,North,5,7.0,9.0,43,0.00,,,0.00,895,weatherlink.com 1.10,2014-09-30 19:58:00,